Temperature
30 31 31 31 32 32 32 31 31 31 30 30 30 29 29 28 27 26 25 25 24 23 23 22 22 21 21 20 20 20 19 19 18 18 18 18 18 18 18 17 17 17 17 17
29 31 31 31 32 32 32 32 31 31 30 30 29 29 28 27 26 26 25 24 23 23 22 22 21 21 21 20 20 19 19 19 18 18 18 18 17 17 17 17 17 17 17 17
28 30 30 30 31 31 31 31 31 30 30 30 29 28 27 27 26 25 24 24 23 23 22 21 21 20 20 20 20 19 19 18 18 18 18 17 17 17 17 17 17 16 16 16
28 28 27 30 32 32 31 30 31 30 30 29 29 28 27 26 25 25 24 23 23 22 21 21 20 20 19 19 19 19 19 18 18 18 17 17 17 17 16 16 16 16 16 16
27 27 28 30 31 30 30 29 30 30 29 29 28 27 26 25 25 24 23 23 22 22 21 20 20 19 19 19 18 18 18 18 17 17 17 17 16 16 16 16 16 16 15 15
26 26 26 28 30 30 30 28 29 29 28 27 27 27 26 25 24 23 23 22 21 21 20 20 19 19 19 18 18 17 17 17 17 16 16 16 16 16 15 15 15 15 15 15
26 26 27 28 29 29 27 26 27 27 27 26 26 26 25 24 23 22 22 21 21 20 20 19 18 18 18 18 17 17 16 16 16 16 16 16 15 15 15 15 15 15 15 15
26 25 26 27 27 26 25 26 26 26 25 25 25 24 23 23 22 21 21 20 20 19 19 18 18 17 17 17 17 16 16 16 16 15 15 15 15 15 15 15 15 15 15 15
26 25 25 26 25 25 25 25 25 25 24 24 24 23 22 21 21 20 20 19 19 18 18 17 17 17 16 16 16 16 15 15 15 15 15 14 14 14 14 14 14 14 14 14
25 25 25 25 25 24 24 24 24 24 24 23 22 22 21 21 20 20 19 19 18 18 17 17 17 16 16 16 15 15 15 15 15 14 14 14 14 14 14 14 14 14 14 14
24 24 24 24 24 23 23 23 23 23 22 22 21 21 20 20 19 19 18 18 17 17 17 16 16 16 15 15 15 15 14 14 14 14 14 14 14 14 14 14 13 13 13 13
23 23 23 23 23 22 22 22 22 21 21 21 21 20 20 19 18 18 17 17 17 16 16 16 16 15 15 15 15 14 14 14 14 14 14 14 14 13 13 13 13 13 13 13
23 23 22 22 22 21 21 21 21 21 20 20 20 19 19 18 18 17 17 17 16 16 16 15 15 15 15 15 14 14 14 13 13 13 13 13 13 13 13 13 13 13 13 12
21 21 21 21 21 21 20 20 20 20 20 19 19 18 18 17 17 17 16 16 16 15 15 15 15 14 14 14 14 13 13 13 13 13 13 13 13 13 13 13 12 12 12 12
20 20 20 20 20 20 19 19 19 19 19 18 18 17 17 17 16 16 16 16 15 15 15 14 14 14 14 13 13 13 13 13 13 13 13 13 13 13 13 12 12 12 12 12
20 20 20 19 19 19 19 18 18 18 18 18 17 17 16 16 16 15 15 15 15 14 14 14 14 13 13 13 13 13 13 13 13 13 12 13 13 13 12 12 12 12 12 11
19 19 19 19 18 18 18 18 18 18 17 17 17 16 16 15 15 15 14 14 14 14 14 13 13 13 13 13 12 12 12 12 12 12 12 12 12 12 12 12 12 11 11 11
18 18 18 18 18 17 17 17 17 17 17 16 16 16 15 15 14 14 14 14 13 13 13 13 13 12 12 12 12 12 12 12 12 12 12 12 12 12 12 11 11 11 11 11
18 18 18 17 17 17 17 17 16 16 16 16 15 15 15 14 14 13 13 13 13 13 12 12 12 12 12 12 11 11 11 11 11 11 11 11 11 11 11 11 11 11 10 10
17 17 17 17 16 16 16 16 15 15 15 15 15 14 14 14 13 13 13 12 12 12 12 12 12 11 11 11 11 11 11 11 11 11 11 11 11 11 11 11 10 10 10 10
16 16 16 16 16 15 15 15 15 14 14 14 14 14 13 13 13 13 12 12 12 12 12 12 11 11 11 11 11 11 11 11 11 11 11 11 11 11 10 10 10 10 10 9
15 15 15 15 15 15 15 14 14 14 14 14 13 13 13 13 13 12 12 12 12 12 12 11 11 11 11 11 11 11 11 11 11 10 10 10 10 10 10 10 10 9 9 9
14 14 14 14 14 14 14 14 14 13 13 13 13 13 13 13 12 12 12 12 12 11 11 11 11 11 11 10 10 10 10 10 10 10 10 10 10 9 9 9 9 9 8 8
14 14 14 14 14 14 13 13 13 13 13 13 13 13 13 12 12 12 12 12 11 11 11 10 10 10 10 10 10 10 10 10 10 10 9 9 9 9 9 9 8 8 8 8
13 13 13 13 13 13 13 13 13 13 13 13 13 13 13 12 12 12 12 11 11 11 10 10 10 10 10 10 10 10 10 9 9 9 9 9 9 8 8 8 8 8 8 7
13 13 13 13 13 13 13 13 13 13 13 13 13 13 12 12 12 12 11 11 11 11 10 10 10 10 10 9 9 9 9 9 9 9 8 8 8 8 8 8 7 7 7 7
13 13 13 13 13 13 13 13 13 13 13 13 12 12 12 12 12 11 11 11 11 10 10 10 10 10 10 9 9 9 9 9 9 8 8 8 8 8 7 7 7 7 7 6
Wind_Speed
15 16 15 16 15 14 14 14 14 10 6 4 4 5 5 6 6 6 6 6 7 6 6 5 5 4 4 3 4 4 4 4 3 2 1 1 1 1 1 2 2 2 2 2
15 16 17 18 16 15 14 13 12 11 7 4 4 4 5 5 6 6 5 6 6 6 6 5 4 4 4 4 4 4 4 3 3 3 2 2 2 1 1 1 1 1 2 2
14 15 16 17 14 12 11 10 9 9 5 3 4 5 4 5 5 5 5 5 5 5 5 4 4 4 3 4 4 4 4 3 3 3 2 2 2 1 2 1 1 1 2 2
13 15 18 13 9 8 7 8 6 3 1 2 3 4 4 5 5 4 4 4 4 5 5 5 5 4 3 3 3 3 4 3 2 2 1 1 1 1 1 1 2 2 2 3
12 15 16 11 7 6 7 7 4 2 1 1 2 4 4 4 5 4 4 5 3 4 5 5 5 5 4 3 3 3 3 2 1 1 1 1 1 1 1 2 2 3 3 2
11 14 15 9 4 4 5 6 2 2 2 2 3 4 3 4 5 4 4 4 3 3 4 4 4 5 4 3 2 2 2 2 2 1 1 2 1 2 2 2 3 3 2 2
14 15 12 5 4 5 7 3 3 2 1 3 2 1 3 5 5 5 4 5 4 3 4 5 4 4 3 2 2 1 1 1 1 1 2 2 2 1 2 3 3 3 3 3
12 15 10 3 2 3 2 3 3 3 2 1 2 4 5 5 4 4 4 4 4 3 4 5 4 4 3 2 1 1 1 0 0 1 2 2 1 2 3 4 4 4 4 4
6 5 1 4 2 2 2 2 2 2 2 1 3 4 5 5 4 3 4 3 3 4 4 4 4 3 3 2 1 1 1 1 1 1 1 2 2 3 3 3 3 4 3 3
4 3 1 1 2 3 3 3 3 3 3 1 2 3 3 4 3 3 3 3 3 3 3 2 2 2 2 2 1 1 1 1 2 2 2 1 2 3 2 2 2 3 3 3
5 3 3 1 3 4 3 3 4 4 3 1 2 2 3 2 3 3 3 3 3 3 3 2 2 2 1 1 1 1 1 2 3 3 2 1 1 2 2 1 1 2 2 2
4 2 2 1 1 3 3 3 3 3 3 2 1 2 1 2 2 2 3 3 3 3 3 2 2 2 1 0 1 1 2 3 3 3 1 1 1 1 2 1 1 1 1 2
2 2 2 1 1 2 2 2 2 2 1 1 2 2 2 2 2 1 2 3 3 2 2 2 3 2 2 2 1 2 3 3 3 3 3 3 3 2 2 2 3 4 4 4
4 3 1 1 1 2 2 2 2 2 0 1 2 2 2 1 1 1 1 2 2 2 3 3 3 2 2 2 2 3 4 4 4 3 4 3 3 3 4 4 3 3 4 6
1 1 2 2 1 1 1 2 2 1 0 1 1 1 1 1 1 1 1 1 1 2 2 2 1 1 0 1 2 3 4 3 3 3 4 4 4 5 4 4 4 3 2 2
2 2 2 2 2 2 2 3 3 2 2 1 1 1 1 0 0 0 1 0 1 1 1 1 1 1 1 2 2 3 3 4 4 5 5 4 4 4 4 4 4 2 1 1
4 4 3 3 3 3 3 3 3 3 2 2 1 1 1 0 0 0 1 1 0 1 1 1 2 1 1 2 3 4 4 4 5 6 5 4 4 5 4 3 4 3 2 1
3 3 3 4 4 3 3 3 3 3 2 2 1 1 1 1 1 1 1 1 1 1 1 1 1 1 2 3 3 4 5 5 5 5 4 3 4 5 4 4 4 4 4 2
4 3 3 3 3 2 2 2 2 2 2 2 2 2 1 2 2 2 1 1 2 2 2 1 1 3 3 2 3 4 5 6 5 5 4 4 5 5 4 4 4 4 4 3
2 2 2 2 2 1 1 1 2 2 1 1 1 1 2 2 2 2 3 3 3 2 1 1 2 3 3 2 4 5 5 6 6 5 4 4 5 4 4 4 4 4 4 3
1 1 1 1 1 0 0 1 1 1 1 1 1 2 2 2 2 3 3 4 1 1 1 3 3 3 3 3 4 5 5 5 5 4 4 4 4 4 4 4 4 4 4 4
1 1 1 1 1 0 0 1 1 1 1 1 1 2 2 2 3 3 3 2 2 2 2 3 2 1 2 4 5 5 5 4 4 4 3 3 3 3 4 4 4 4 3 3
1 1 1 2 1 1 1 2 2 1 1 1 1 2 3 2 3 3 3 1 1 1 2 2 1 0 1 4 5 5 4 4 4 4 3 3 3 3 4 4 3 3 3 3
1 1 1 2 2 2 2 2 1 2 2 3 3 3 3 3 2 2 1 1 1 1 2 1 3 2 3 4 5 5 5 4 4 3 3 3 3 3 3 3 3 3 3 4
2 2 2 2 3 3 2 2 3 3 4 3 3 3 3 2 2 2 2 2 1 2 2 3 5 5 4 4 5 4 4 4 3 2 3 3 2 2 2 2 2 3 3 3
2 2 2 2 2 3 3 2 2 2 2 3 3 2 2 2 2 2 2 2 2 3 3 2 3 5 5 5 4 4 3 3 3 3 3 3 3 3 3 3 4 3 3 3
3 3 3 3 3 3 3 2 1 2 2 2 2 3 2 2 2 2 2 2 2 2 2 2 3 3 4 3 3 4 4 3 3 3 3 2 3 3 3 3 3 3 3 3
Wind_Direction
265 267 271 269 262 259 260 267 273 274 251 213 172 159 144 135 131 131 131 129 124 124 122 122 119 128 133 125 120 127 134 146 150 159 178 186 197 211 224 222 226 224 251 266
268 266 267 268 263 260 259 262 267 269 269 192 148 136 136 144 146 143 140 140 133 129 126 127 124 134 133 132 130 129 138 151 153 161 168 178 179 182 207 245 268 248 251 264
271 273 273 264 263 269 264 266 272 270 261 170 157 156 172 171 157 149 155 157 150 139 132 130 126 114 123 134 137 145 152 154 154 159 173 178 203 193 210 225 252 265 284 280
264 269 264 266 275 273 277 266 272 280 231 198 191 163 158 154 150 147 149 154 150 152 142 132 126 122 120 133 140 147 146 150 153 162 187 205 213 222 231 230 249 261 261 267
258 260 262 265 264 261 265 272 288 275 249 210 155 164 161 146 134 133 138 140 151 156 140 128 126 120 112 122 127 139 148 140 146 181 238 244 246 258 266 256 252 257 261 269
252 260 263 273 285 294 269 257 293 282 206 204 218 230 192 132 133 131 118 124 123 128 132 127 120 124 129 138 131 150 160 160 165 173 246 259 263 270 271 269 271 272 272 263
249 257 259 298 307 286 263 281 352 315 227 202 236 267 126 130 125 124 122 128 131 134 133 124 119 122 125 128 139 147 152 177 199 205 227 230 239 259 273 271 270 270 264 259
246 253 257 353 296 284 337 25 21 6 354 28 96 105 112 117 116 120 123 126 133 124 117 114 116 122 131 135 123 97 82 57 333 281 266 247 258 264 260 264 265 260 258 252
251 253 351 26 29 14 1 30 29 13 9 16 122 122 127 132 133 130 129 128 129 126 116 120 127 136 146 133 131 150 169 215 243 262 276 274 254 260 261 266 280 286 284 281
251 235 225 6 349 350 15 38 24 15 24 76 139 141 141 135 134 138 147 152 147 138 126 109 106 117 128 128 143 180 210 239 245 241 240 251 269 272 263 260 273 286 298 304
245 251 266 340 6 1 12 22 23 17 21 89 127 119 117 121 133 135 136 141 147 143 140 139 128 115 104 94 121 212 254 267 268 261 245 238 266 303 295 304 280 266 294 306
252 251 257 252 338 341 339 2 12 13 8 21 84 120 130 117 119 128 140 153 162 165 159 158 158 140 139 177 164 245 258 264 278 280 262 253 244 302 0 236 185 164 236 269
295 323 334 0 3 316 311 344 356 347 346 39 86 105 105 94 113 126 151 161 173 176 170 187 178 174 179 200 208 238 265 277 285 286 276 255 250 247 256 265 249 247 246 250
37 30 347 319 315 315 329 328 310 297 332 98 97 97 97 105 130 152 197 192 193 183 185 187 184 181 185 205 229 245 255 253 265 270 274 270 262 263 257 252 251 248 240 234
5 317 287 307 327 317 311 301 301 310 54 90 98 93 68 46 58 29 353 241 208 203 198 197 190 158 155 246 256 272 279 275 277 283 276 272 269 267 265 263 266 257 235 231
274 264 260 260 256 260 257 254 251 250 231 184 150 125 108 77 61 18 5 228 182 201 183 174 187 201 222 254 262 264 270 273 271 277 273 268 268 273 274 272 275 270 260 273
270 262 258 256 254 259 256 256 251 247 237 209 173 164 185 225 285 348 310 275 200 171 184 197 215 218 247 269 276 277 282 273 261 268 273 283 290 291 292 294 295 296 296 275
273 276 271 263 255 257 264 264 257 245 234 216 211 210 223 226 224 232 262 269 266 243 229 218 210 257 267 276 287 286 285 281 270 268 278 284 288 286 284 286 286 287 287 271
266 270 265 260 255 250 252 263 261 245 235 224 225 228 238 237 226 228 245 247 247 249 244 244 238 259 268 267 284 271 272 273 274 276 276 273 271 275 276 278 282 283 283 283
255 257 251 257 268 263 268 267 278 280 263 228 222 237 253 252 253 241 237 241 242 245 233 243 250 263 267 267 272 274 272 271 273 275 274 268 270 274 276 276 279 283 286 287
257 237 221 240 266 244 295 294 278 296 290 224 239 257 268 266 265 258 251 251 218 186 241 230 240 261 270 277 265 268 269 272 273 274 274 275 281 283 283 284 287 289 290 289
296 259 258 259 232 239 295 290 270 259 234 236 271 286 287 269 259 255 251 262 233 178 235 251 248 279 300 287 274 273 272 271 274 274 272 278 287 294 292 291 291 297 301 306
323 331 293 290 289 278 270 258 261 268 257 234 254 275 279 289 281 273 274 258 241 199 249 265 289 101 283 275 279 280 278 275 278 281 283 285 287 292 297 298 300 303 305 304
270 247 259 272 265 257 252 252 275 262 244 239 235 247 262 262 266 279 304 157 179 206 265 231 166 187 245 275 280 281 281 280 279 281 281 280 278 280 284 287 292 298 298 296
235 238 241 249 255 254 237 219 227 240 244 247 249 246 253 256 276 301 287 275 185 204 264 224 202 213 237 265 276 281 282 279 279 286 284 285 288 289 286 283 278 280 289 298
235 237 239 247 264 270 259 250 247 253 263 270 280 280 264 259 275 273 253 260 255 223 245 254 234 225 239 255 267 275 275 275 272 263 264 270 278 279 281 281 285 293 299 300
223 223 231 244 249 257 260 254 274 289 291 289 296 303 306 311 314 302 288 286 293 279 269 262 261 262 262 264 275 284 283 278 275 274 274 274 275 276 277 279 285 289 295 297
Height
1472 1468 1467 1469 1468 1467 1470 1472 1478 1477 1477 1477 1477 1481 1484 1489 1492 1495 1498 1500 1503 1505 1508 1510 1511 1512 1514 1515 1516 1518 1518 1519 1520 1521 1522 1523 1523 1523 1524 1524 1524 1524 1524 1524
1476 1468 1466 1467 1463 1462 1464 1466 1468 1471 1474 1472 1477 1481 1486 1489 1492 1495 1497 1500 1502 1504 1506 1508 1510 1511 1512 1514 1515 1516 1517 1518 1519 1520 1520 1521 1521 1521 1522 1522 1522 1522 1521 1522
1482 1471 1469 1474 1464 1462 1462 1462 1466 1472 1472 1472 1477 1482 1486 1489 1491 1494 1497 1499 1501 1503 1505 1507 1509 1510 1511 1512 1513 1515 1515 1517 1518 1518 1519 1519 1519 1519 1519 1519 1519 1518 1518 1518
1482 1482 1492 1469 1455 1456 1461 1462 1462 1466 1469 1473 1477 1482 1485 1488 1491 1493 1496 1498 1500 1502 1504 1506 1507 1508 1510 1511 1512 1513 1514 1514 1516 1516 1516 1517 1517 1517 1517 1516 1516 1516 1516 1516
1482 1485 1477 1463 1457 1458 1465 1467 1463 1467 1470 1473 1477 1481 1485 1487 1490 1493 1495 1498 1500 1502 1503 1504 1506 1507 1508 1509 1510 1511 1512 1512 1513 1513 1514 1514 1514 1514 1514 1513 1513 1513 1513 1513
1481 1487 1487 1470 1460 1459 1463 1472 1467 1469 1472 1474 1477 1481 1484 1487 1489 1492 1495 1497 1499 1501 1502 1503 1504 1506 1507 1508 1509 1509 1509 1510 1511 1511 1511 1511 1511 1511 1511 1511 1510 1510 1510 1509
1480 1482 1473 1464 1462 1463 1476 1477 1470 1471 1473 1475 1477 1481 1484 1487 1489 1491 1494 1496 1498 1499 1501 1502 1503 1504 1505 1506 1507 1507 1508 1508 1508 1508 1507 1508 1508 1508 1508 1508 1507 1507 1507 1506
1475 1482 1479 1466 1465 1470 1474 1472 1473 1474 1475 1477 1478 1481 1483 1486 1489 1491 1493 1495 1497 1498 1499 1501 1502 1503 1503 1504 1505 1505 1505 1505 1505 1505 1505 1505 1505 1505 1504 1504 1504 1504 1503 1503
1471 1475 1471 1470 1470 1472 1472 1473 1475 1475 1476 1478 1479 1482 1484 1487 1489 1491 1493 1494 1496 1497 1498 1500 1500 1501 1502 1502 1503 1503 1503 1503 1503 1503 1503 1503 1502 1502 1501 1502 1501 1501 1500 1500
1467 1467 1469 1471 1472 1473 1474 1475 1476 1477 1477 1479 1480 1482 1485 1487 1489 1491 1492 1493 1495 1496 1497 1498 1499 1500 1500 1500 1501 1501 1501 1501 1501 1500 1500 1500 1500 1499 1499 1498 1498 1498 1497 1497
1467 1469 1469 1471 1473 1475 1476 1477 1477 1478 1479 1480 1481 1483 1485 1487 1488 1490 1491 1492 1494 1494 1495 1496 1497 1498 1498 1498 1499 1499 1499 1499 1499 1498 1498 1497 1497 1497 1496 1496 1495 1495 1494 1493
1468 1469 1471 1473 1474 1476 1478 1478 1478 1479 1480 1481 1481 1483 1484 1486 1487 1488 1490 1491 1492 1493 1493 1494 1495 1496 1496 1496 1496 1496 1496 1496 1496 1496 1495 1494 1493 1493 1493 1493 1492 1491 1490 1490
1468 1469 1471 1473 1474 1477 1477 1478 1479 1480 1481 1482 1482 1483 1484 1485 1486 1487 1488 1489 1490 1491 1492 1492 1493 1493 1494 1493 1493 1493 1493 1493 1493 1492 1492 1491 1491 1490 1490 1489 1489 1488 1487 1486
1469 1471 1472 1474 1475 1477 1477 1479 1480 1480 1481 1482 1482 1483 1484 1484 1485 1486 1487 1487 1488 1489 1489 1490 1490 1491 1491 1491 1491 1490 1490 1490 1490 1489 1489 1489 1488 1488 1487 1486 1486 1485 1484 1483
1470 1472 1473 1474 1476 1477 1478 1479 1480 1480 1481 1482 1482 1483 1483 1484 1484 1485 1486 1486 1486 1487 1487 1487 1488 1488 1488 1488 1488 1488 1488 1487 1487 1487 1487 1486 1486 1485 1484 1484 1483 1482 1481 1481
1471 1472 1473 1474 1475 1477 1478 1479 1479 1480 1480 1481 1482 1483 1483 1483 1484 1483 1484 1484 1484 1484 1484 1484 1484 1485 1485 1485 1485 1485 1485 1485 1484 1484 1483 1483 1483 1482 1482 1481 1480 1480 1479 1478
1471 1472 1473 1474 1475 1476 1477 1478 1478 1479 1479 1480 1481 1482 1482 1482 1482 1482 1482 1482 1482 1482 1482 1482 1482 1482 1482 1482 1482 1482 1482 1482 1481 1481 1480 1480 1479 1479 1479 1478 1478 1477 1476 1475
1471 1472 1472 1473 1474 1475 1476 1477 1477 1478 1478 1479 1480 1480 1480 1481 1481 1480 1480 1480 1480 1480 1480 1479 1479 1479 1479 1479 1479 1479 1479 1479 1479 1478 1477 1477 1476 1476 1476 1475 1474 1474 1473 1472
1470 1471 1471 1473 1473 1474 1475 1475 1476 1476 1477 1477 1478 1478 1479 1479 1479 1479 1478 1478 1478 1477 1477 1477 1476 1476 1476 1476 1476 1475 1475 1476 1475 1475 1474 1473 1473 1473 1472 1472 1471 1470 1469 1468
1469 1470 1470 1471 1472 1473 1473 1474 1474 1475 1475 1476 1476 1477 1477 1477 1477 1477 1476 1476 1476 1475 1474 1474 1474 1473 1473 1472 1472 1472 1472 1472 1472 1471 1470 1470 1469 1469 1468 1468 1467 1466 1466 1465
1468 1469 1469 1470 1471 1472 1473 1473 1473 1473 1474 1474 1475 1475 1475 1475 1475 1474 1474 1474 1473 1472 1472 1471 1471 1470 1470 1469 1469 1469 1469 1469 1468 1467 1467 1466 1466 1465 1465 1464 1463 1463 1462 1461
1467 1468 1469 1470 1471 1471 1472 1472 1472 1472 1472 1473 1473 1473 1473 1473 1473 1472 1472 1472 1471 1470 1469 1469 1468 1467 1467 1466 1466 1466 1466 1465 1465 1464 1463 1463 1462 1461 1461 1460 1460 1459 1458 1457
1467 1467 1468 1469 1469 1470 1470 1471 1471 1471 1471 1471 1471 1471 1471 1471 1471 1470 1470 1469 1468 1467 1467 1466 1466 1465 1464 1463 1463 1463 1462 1462 1461 1461 1460 1459 1458 1458 1457 1456 1456 1455 1455 1454
1466 1467 1467 1468 1469 1469 1469 1469 1469 1469 1469 1469 1470 1470 1469 1469 1469 1469 1468 1467 1466 1465 1464 1463 1463 1462 1461 1460 1460 1460 1459 1459 1458 1457 1456 1455 1455 1454 1453 1453 1452 1452 1451 1451
1465 1465 1466 1467 1467 1467 1467 1467 1467 1468 1468 1468 1468 1468 1468 1467 1467 1466 1465 1464 1463 1462 1461 1461 1460 1459 1459 1458 1457 1457 1456 1455 1454 1453 1453 1452 1451 1451 1450 1450 1449 1449 1449 1448
1464 1464 1464 1465 1466 1466 1466 1466 1466 1466 1466 1466 1466 1466 1465 1465 1464 1463 1462 1462 1461 1460 1459 1458 1458 1457 1456 1455 1455 1454 1453 1452 1451 1450 1450 1449 1448 1448 1447 1447 1447 1446 1445 1445
1463 1463 1464 1464 1464 1464 1464 1464 1464 1464 1464 1464 1464 1464 1463 1463 1462 1461 1460 1460 1459 1458 1457 1456 1455 1455 1454 1453 1452 1452 1450 1450 1449 1448 1448 1447 1446 1446 1445 1444 1444 1443 1442 1441